Location: Balsareny
(41.8670°N, 1.8830°E)
Time: 13:49:58
(UTC+02:00)

HTV-X1 - Visible Passes

Search period start: 08 May 2026 00:00
Search period end: 18 May 2026 00:00
Orbit: 373 x 383 km, 51.6° (Epoch: 8 May)

Date Brightness Start Highest point End Pass type
(mag) Time Alt. Az. Time Alt. Az. Time Alt. Az.
8 May ? 02:55:24 12° NNE 02:55:24 12° NNE 02:56:04 10° NE visible
8 May ? 04:27:59 10° NW 04:30:51 33° NNE 04:33:43 10° E visible
8 May ? 06:03:56 10° WNW 06:06:42 29° SW 06:09:28 10° SSE visible
8 May ? 22:37:22 10° SW 22:40:17 53° SSE 22:40:17 53° SSE visible
9 May ? 03:30:25 20° NE 03:30:25 20° NE 03:32:21 10° ENE visible
9 May ? 05:02:57 10° WNW 05:06:02 73° SW 05:09:07 10° SE visible
9 May ? 21:37:17 10° S 21:39:44 22° SE 21:42:12 10° E visible
9 May ? 23:12:32 10° W 23:15:28 41° NNW 23:17:39 16° NE visible
10 May ? 04:07:08 19° E 04:07:08 19° E 04:08:14 10° ESE visible
10 May ? 05:39:30 14° W 05:40:53 18° SW 05:43:06 10° S visible
10 May ? 22:11:32 10° SW 22:14:36 89° NW 22:17:41 10° NE visible
10 May ? 23:48:31 10° WNW 23:50:50 19° NNW 23:53:07 10° NNE visible
11 May ? 22:47:01 10° W 22:49:46 29° NNW 22:52:32 10° NE visible
12 May ? 00:24:40 10° NW 00:26:23 14° N 00:27:22 12° NNE visible
12 May ? 21:45:45 10° WSW 21:48:47 55° NNW 21:51:49 10° NE visible
12 May ? 23:23:07 10° NW 23:25:11 16° NNW 23:27:14 10° NNE visible
13 May ? 01:00:09 10° NNW 01:01:06 13° NNW 01:01:06 13° NNW visible
13 May ? 22:21:29 10° WNW 22:24:00 22° NNW 22:26:31 10° NE visible
13 May ? 23:59:05 10° NNW 00:00:43 13° N 00:02:22 10° NNE visible
14 May ? 22:57:37 10° NW 22:59:26 15° N 23:01:16 10° NNE visible
15 May ? 00:34:10 10° NNW 00:35:52 16° N 00:35:52 16° N visible
15 May ? 21:55:56 10° WNW 21:58:11 18° NNW 22:00:26 10° NNE visible
15 May ? 23:33:15 10° NNW 23:34:57 14° N 23:36:40 10° NE visible
16 May ? 01:08:48 10° NW 01:09:10 12° NW 01:09:10 12° NW visible
16 May ? 22:31:57 10° NW 22:33:37 14° N 22:35:18 10° NNE visible
17 May ? 00:08:03 10° NNW 00:10:19 19° NNE 00:10:19 19° NNE visible
17 May ? 23:07:11 10° NNW 23:09:04 15° N 23:10:58 10° NE visible
